Regional Weather Roundup
Issued by NWS Little Rock, AR

Home | Current Version | Previous Version | Text Only | Print | Product List | Glossary Off
Versions: 1 2 3 4 5 6 7 8 9 10 11 12 13 14 15 16 17 18 19 20 21 22 23 24 25 26 27 28 29 30 31 32 33 34 35 36 37 38 39 40 41 42 43 44 45 46 47 48 49 50

000
ASUS44 KLZK 182105
RWRLZK

WEATHER ROUNDUP FOR ARKANSAS
NATIONAL WEATHER SERVICE LITTLE ROCK AR
400 PM CDT WED OCT 18 2017

NOTE: "FAIR" INDICATES FEW OR NO CLOUDS BELOW 12,000 FEET WITH NO
SIGNIFICANT WEATHER AND/OR OBSTRUCTIONS TO VISIBILITY.

ARZ001-003-010-029-182200-
NORTHWEST ARKANSAS

CITY           SKY/WX    TMP DP  RH WIND       PRES   REMARKS
FAYETTEVILLE   SUNNY     74  45  35 S9        30.11S
FORT SMITH     SUNNY     79  45  29 CALM      30.09F
HARRISON       SUNNY     78  41  26 S13       30.11S
BENTONVILLE    SUNNY     75  44  33 S8        30.12S
ROGERS         SUNNY     76  43  30 SW14      30.11S
SILOAM SPGS    SUNNY     75  44  33 S14       30.11R
HIGHFILL       SUNNY     75  43  31 S15       30.10S
SPRINGDALE     SUNNY     75  43  31 S12G17    30.12R
$$

ARZ004-005-016-182200-
NORTH CENTRAL ARKANSAS

CITY           SKY/WX    TMP DP  RH WIND       PRES   REMARKS
BATESVILLE     SUNNY     75  49  39 S8        30.14F
FLIPPIN        SUNNY     79  44  28 S6        30.11S
$$

ARZ040-041-182200-
WEST CENTRAL ARKANSAS

CITY           SKY/WX    TMP DP  RH WIND       PRES   REMARKS
MENA           SUNNY     81  41  24 S3        30.13F
$$

ARZ009-017-025-026-028-182200-
NORTHEAST ARKANSAS

CITY           SKY/WX    TMP DP  RH WIND       PRES   REMARKS
JONESBORO      SUNNY     76  50  40 S9G18     30.15F
NEWPORT        SUNNY     76  49  38 S14       30.15
WALNUT RIDGE   SUNNY     76  48  37 S13       30.15S
BLYTHEVILLE    SUNNY     74  49  41 S10       30.18S
$$

ARZ022-023-033-042-044-182200-
CENTRAL ARKANSAS

CITY           SKY/WX    TMP DP  RH WIND       PRES   REMARKS
LITTLE ROCK    SUNNY     77  52  41 SE12      30.15S
N LITTLE ROCK    N/A     76  53  43 E7        30.16F
JACKSONVILLE   SUNNY     79  50  35 S8        30.14S
SEARCY         SUNNY     78  52  40 SE10      30.15F
HOT SPRINGS    SUNNY     78  47  33 SW3       30.14F
RUSSELLVILLE   SUNNY     79  49  34 CALM      30.11F
CLINTON        FAIR      75  48  38 VRB5G12   30.14S
$$

ARZ036-182200-
EAST ARKANSAS

CITY           SKY/WX    TMP DP  RH WIND       PRES   REMARKS
WEST MEMPHIS   SUNNY     73  48  41 S10       30.17F
$$

ARZ050-053-066-070-073-182200-
SOUTHWEST ARKANSAS

CITY           SKY/WX    TMP DP  RH WIND       PRES   REMARKS
ARKADELPHIA    FAIR      80  54  40 VRB5      30.13F
CAMDEN         SUNNY     82  48  30 CALM      30.13F
TEXARKANA      SUNNY     79  46  31 E7        30.11F
EL DORADO      SUNNY     78  54  43 S5        30.15S
DE QUEEN       SUNNY     79  47  32 VRB6      30.10F
$$

ARZ056-057-069-182200-
SOUTHEAST ARKANSAS

CITY           SKY/WX    TMP DP  RH WIND       PRES   REMARKS
PINE BLUFF     SUNNY     77  50  38 SE5       30.15F
STUTTGART      SUNNY     77  47  34 S10       30.16F
MONTICELLO     SUNNY     77  48  35 E7        30.16F

$$





USA.gov is the U.S. government's official web portal to all federal, state and local government web resources and services.